Time,TemperatureF,DewpointF,PressureIn,WindDirection,WindDirectionDegrees,WindSpeedMPH,WindSpeedGustMPH,Humidity,HourlyPrecipIn,Conditions,Clouds,dailyrainin,SoftwareType,DateUTC
2013-06-13 00:00:00,63.1,56.9,28.88,East,87,0.0,4.7,80,0.00,,CLR,0.00,VWS V14.01,2013-06-13 05:00:00,
2013-06-13 00:15:00,63.1,56.9,28.88,East,85,2.7,4.5,80,0.00,,CLR,0.00,VWS V14.01,2013-06-13 05:15:00,
2013-06-13 00:30:00,63.1,56.9,28.88,NNE,30,0.0,4.7,80,0.00,,CLR,0.00,VWS V14.01,2013-06-13 05:30:00,
2013-06-13 00:45:00,63.1,56.9,28.88,East,87,0.0,4.7,80,0.00,,CLR,0.00,VWS V14.01,2013-06-13 05:45:00,
2013-06-13 01:00:00,63.1,56.9,28.91,NE,50,0.0,3.6,80,0.00,,CLR,0.00,VWS V14.01,2013-06-13 06:00:00,
2013-06-13 01:15:00,63.1,56.9,28.88,East,84,0.0,4.5,80,0.00,,CLR,0.00,VWS V14.01,2013-06-13 06:15:00,
2013-06-13 01:30:00,63.1,56.9,28.88,NNE,20,0.0,3.1,80,0.00,,CLR,0.00,VWS V14.01,2013-06-13 06:30:00,
2013-06-13 01:45:00,63.1,56.9,28.88,NNE,26,0.0,3.1,80,0.00,,CLR,0.00,VWS V14.01,2013-06-13 06:45:00,
2013-06-13 02:00:00,63.1,56.9,28.88,NE,55,0.0,2.7,80,0.00,,CLR,0.00,VWS V14.01,2013-06-13 07:00:00,
2013-06-13 02:15:00,63.1,56.9,28.88,ENE,71,0.0,4.5,80,0.00,,CLR,0.00,VWS V14.01,2013-06-13 07:15:00,
2013-06-13 02:30:00,63.1,56.9,28.91,ENE,69,0.0,2.7,80,0.00,,CLR,0.00,VWS V14.01,2013-06-13 07:30:00,
2013-06-13 02:45:00,63.1,56.9,28.91,East,97,0.0,0.0,80,0.00,,CLR,0.00,VWS V14.01,2013-06-13 07:45:00,
2013-06-13 03:00:00,63.1,56.9,28.91,North,353,0.0,0.0,80,0.00,,CLR,0.00,VWS V14.01,2013-06-13 08:00:00,
2013-06-13 03:15:00,63.1,56.9,28.91,North,353,0.0,0.0,80,0.00,,CLR,0.00,VWS V14.01,2013-06-13 08:15:00,
2013-06-13 03:30:00,63.1,56.9,28.91,North,353,0.0,0.0,80,0.00,,CLR,0.00,VWS V14.01,2013-06-13 08:30:00,
2013-06-13 03:45:00,63.1,56.9,28.91,North,353,0.0,0.0,80,0.00,,CLR,0.00,VWS V14.01,2013-06-13 08:45:00,
2013-06-13 04:00:00,63.1,56.9,28.91,North,357,0.0,0.0,80,0.00,,CLR,0.00,VWS V14.01,2013-06-13 09:00:00,
2013-06-13 04:15:00,63.1,56.9,28.88,NNE,30,0.0,0.0,80,0.00,,CLR,0.00,VWS V14.01,2013-06-13 09:15:00,
2013-06-13 04:30:00,63.1,56.9,28.91,NNE,30,0.0,0.0,80,0.00,,CLR,0.00,VWS V14.01,2013-06-13 09:30:00,
2013-06-13 04:45:00,63.1,56.9,28.91,NNE,30,0.0,0.0,80,0.00,,CLR,0.00,VWS V14.01,2013-06-13 09:45:00,
2013-06-13 05:00:00,63.1,56.9,28.88,ENE,74,0.0,0.0,80,0.00,,CLR,0.00,VWS V14.01,2013-06-13 10:00:00,
2013-06-13 05:15:00,63.1,56.9,28.88,East,81,0.0,0.0,80,0.00,,CLR,0.00,VWS V14.01,2013-06-13 10:15:00,
2013-06-13 05:30:00,63.1,56.9,28.91,NNE,24,0.0,0.0,80,0.00,,CLR,0.00,VWS V14.01,2013-06-13 10:30:00,
2013-06-13 05:45:00,63.1,56.9,28.91,NNE,24,0.0,0.0,80,0.00,,CLR,0.00,VWS V14.01,2013-06-13 10:45:00,
2013-06-13 06:00:00,63.1,56.9,28.94,NNE,24,0.0,0.0,80,0.00,,CLR,0.00,VWS V14.01,2013-06-13 11:00:00,
2013-06-13 06:15:00,63.1,56.9,28.94,NNE,25,0.0,0.0,80,0.00,,CLR,0.00,VWS V14.01,2013-06-13 11:15:00,
2013-06-13 06:30:00,63.1,56.9,28.94,NE,55,0.0,0.0,80,0.00,,CLR,0.00,VWS V14.01,2013-06-13 11:30:00,
2013-06-13 06:45:00,63.1,56.9,28.94,ENE,70,0.0,0.0,80,0.00,,CLR,0.00,VWS V14.01,2013-06-13 11:45:00,
2013-06-13 07:00:00,63.1,56.9,28.94,East,88,0.0,0.0,80,0.00,,CLR,0.00,VWS V14.01,2013-06-13 12:00:00,
2013-06-13 07:15:00,63.1,56.9,28.94,North,357,0.0,0.0,80,0.00,,FEW140,0.00,VWS V14.01,2013-06-13 12:15:00,
2013-06-13 07:30:00,63.1,56.9,28.94,ENE,76,0.0,0.0,80,0.00,,FEW140,0.00,VWS V14.01,2013-06-13 12:30:00,
2013-06-13 07:45:00,63.1,56.9,28.94,North,357,0.0,0.0,80,0.00,,FEW140,0.00,VWS V14.01,2013-06-13 12:45:00,
2013-06-13 08:00:00,63.1,56.9,28.94,East,89,0.0,3.1,80,0.00,,FEW140,0.00,VWS V14.01,2013-06-13 13:00:00,
2013-06-13 08:15:00,63.1,56.9,28.94,East,91,0.0,2.7,80,0.00,,FEW140,0.00,VWS V14.01,2013-06-13 13:15:00,
2013-06-13 08:30:00,63.1,56.9,28.94,NE,40,0.0,3.6,80,0.00,,FEW140,0.00,VWS V14.01,2013-06-13 13:30:00,
2013-06-13 08:45:00,63.1,56.9,28.94,East,86,2.7,3.6,80,0.00,,FEW140,0.00,VWS V14.01,2013-06-13 13:45:00,
2013-06-13 09:00:00,63.1,56.9,28.97,NE,55,0.0,3.1,80,0.00,,FEW140,0.00,VWS V14.01,2013-06-13 14:00:00,
2013-06-13 09:15:00,63.1,56.9,28.97,NE,54,0.0,0.0,80,0.00,,SCT250,0.00,VWS V14.01,2013-06-13 14:15:00,
2013-06-13 09:30:00,63.1,56.9,28.94,NE,49,0.0,0.0,80,0.00,,SCT250,0.00,VWS V14.01,2013-06-13 14:30:00,
2013-06-13 09:45:00,63.1,56.9,28.94,ENE,66,2.7,2.7,80,0.00,,SCT250,0.00,VWS V14.01,2013-06-13 14:45:00,
2013-06-13 10:00:00,63.1,56.9,28.94,NE,53,0.0,4.0,80,0.00,,SCT250,0.00,VWS V14.01,2013-06-13 15:00:00,
2013-06-13 10:15:00,63.1,56.9,28.94,NE,39,0.0,3.6,80,0.00,,FEW250,0.00,VWS V14.01,2013-06-13 15:15:00,
2013-06-13 10:30:00,63.1,56.9,28.94,ENE,60,0.0,2.7,80,0.00,,FEW250,0.00,VWS V14.01,2013-06-13 15:30:00,
2013-06-13 10:45:00,63.1,56.9,28.94,East,92,0.0,0.0,80,0.00,,FEW250,0.00,VWS V14.01,2013-06-13 15:45:00,
2013-06-13 11:00:00,63.1,56.9,28.94,North,6,0.0,2.7,80,0.00,,FEW250,0.00,VWS V14.01,2013-06-13 16:00:00,
2013-06-13 11:15:00,63.1,56.9,28.94,ENE,66,0.0,3.6,80,0.00,,FEW250,0.00,VWS V14.01,2013-06-13 16:15:00,
2013-06-13 11:30:00,63.1,56.9,28.94,NE,39,0.0,3.6,80,0.00,,FEW250,0.00,VWS V14.01,2013-06-13 16:30:00,
2013-06-13 11:45:00,63.1,56.9,28.94,North,6,0.0,0.0,80,0.00,,FEW250,0.00,VWS V14.01,2013-06-13 16:45:00,
2013-06-13 12:00:00,63.1,56.9,28.94,WSW,256,0.0,2.7,80,0.00,,FEW250,0.00,VWS V14.01,2013-06-13 17:00:00,
2013-06-13 12:15:00,63.1,56.9,28.94,NE,51,0.0,0.0,80,0.00,,SCT250,0.00,VWS V14.01,2013-06-13 17:15:00,
2013-06-13 12:30:00,63.1,56.9,28.94,SW,225,0.0,0.0,80,0.00,,SCT250,0.00,VWS V14.01,2013-06-13 17:30:00,
2013-06-13 12:45:00,63.1,56.9,28.94,NE,44,0.0,0.0,80,0.00,,SCT250,0.00,VWS V14.01,2013-06-13 17:45:00,
2013-06-13 13:00:00,63.1,56.9,28.94,NNE,21,0.0,3.6,80,0.00,,SCT250,0.00,VWS V14.01,2013-06-13 18:00:00,
2013-06-13 13:15:00,63.1,56.9,28.91,NE,52,0.0,3.1,80,0.00,,SCT250,0.00,VWS V14.01,2013-06-13 18:15:00,
2013-06-13 13:30:00,63.1,56.9,28.94,ENE,65,2.7,5.6,80,0.00,,SCT250,0.00,VWS V14.01,2013-06-13 18:30:00,
2013-06-13 13:45:00,63.1,56.9,28.91,NNE,30,0.0,2.7,80,0.00,,SCT250,0.00,VWS V14.01,2013-06-13 18:45:00,
2013-06-13 14:00:00,63.1,56.9,28.91,NNW,346,0.0,0.0,80,0.00,,SCT250,0.00,VWS V14.01,2013-06-13 19:00:00,
2013-06-13 14:15:00,63.1,56.9,28.91,NE,52,0.0,3.6,80,0.00,,BKN250,0.00,VWS V14.01,2013-06-13 19:15:00,
2013-06-13 14:30:00,63.1,56.9,28.91,NE,49,0.0,0.0,80,0.00,,BKN250,0.00,VWS V14.01,2013-06-13 19:30:00,
2013-06-13 14:45:00,63.1,56.9,28.94,NE,49,0.0,0.0,80,0.00,,BKN250,0.00,VWS V14.01,2013-06-13 19:45:00,
2013-06-13 15:00:00,63.1,56.9,28.94,NE,39,0.0,0.0,80,0.00,,BKN250,0.00,VWS V14.01,2013-06-13 20:00:00,
2013-06-13 15:15:00,63.1,56.9,28.94,NNW,340,0.0,0.0,80,0.00,,BKN250,0.00,VWS V14.01,2013-06-13 20:15:00,
2013-06-13 15:30:00,63.1,56.9,28.94,NNW,341,0.0,0.0,80,0.00,,BKN250,0.00,VWS V14.01,2013-06-13 20:30:00,
2013-06-13 15:45:00,63.1,56.9,28.91,NNW,341,0.0,0.0,80,0.00,,BKN250,0.00,VWS V14.01,2013-06-13 20:45:00,
2013-06-13 16:00:00,63.1,56.9,28.94,North,350,0.0,0.0,80,0.00,,BKN250,0.00,VWS V14.01,2013-06-13 21:00:00,
2013-06-13 16:15:00,63.1,56.9,28.91,North,350,0.0,0.0,80,0.00,,-RA,0.00,VWS V14.01,2013-06-13 21:15:00,
2013-06-13 16:30:00,63.1,56.9,28.88,North,350,0.0,0.0,80,0.00,,-RA,0.00,VWS V14.01,2013-06-13 21:30:00,
2013-06-13 16:45:00,63.1,56.9,28.91,North,350,0.0,0.0,80,0.00,,-RA,0.00,VWS V14.01,2013-06-13 21:45:00,
2013-06-13 17:00:00,63.1,56.9,28.91,North,350,0.0,0.0,80,0.00,,-RA,0.00,VWS V14.01,2013-06-13 22:00:00,
2013-06-13 17:15:00,63.1,56.9,28.91,North,350,0.0,0.0,80,0.00,,-RA,0.00,VWS V14.01,2013-06-13 22:15:00,
2013-06-13 17:30:00,63.1,56.9,28.91,North,350,0.0,0.0,80,0.00,,-RA,0.00,VWS V14.01,2013-06-13 22:30:00,
2013-06-13 17:45:00,63.1,56.9,28.88,North,350,0.0,0.0,80,0.00,,-RA,0.00,VWS V14.01,2013-06-13 22:45:00,
2013-06-13 18:00:00,63.1,56.9,28.85,NW,326,0.0,0.0,80,0.00,,-RA,0.00,VWS V14.01,2013-06-13 23:00:00,
2013-06-13 18:15:00,63.1,56.9,28.85,NNW,328,0.0,0.0,80,0.00,,-RA,0.00,VWS V14.01,2013-06-13 23:15:00,
2013-06-13 18:30:00,63.1,56.9,28.82,WSW,251,0.0,0.0,80,0.00,,-RA,0.00,VWS V14.01,2013-06-13 23:30:00,
2013-06-13 18:45:00,63.1,56.9,28.82,WSW,251,0.0,0.0,80,0.00,,-RA,0.00,VWS V14.01,2013-06-13 23:45:00,
2013-06-13 19:00:00,63.1,56.9,28.82,WSW,251,0.0,0.0,80,0.00,,-RA,0.00,VWS V14.01,2013-06-14 00:00:00,
2013-06-13 19:15:00,63.1,56.9,28.82,WSW,251,0.0,0.0,80,0.00,,OVC250,0.00,VWS V14.01,2013-06-14 00:15:00,
2013-06-13 19:30:00,63.1,56.9,28.82,WSW,251,0.0,0.0,80,0.00,,OVC250,0.00,VWS V14.01,2013-06-14 00:30:00,
2013-06-13 19:45:00,63.1,56.9,28.85,WSW,251,0.0,0.0,80,0.00,,OVC250,0.00,VWS V14.01,2013-06-14 00:45:00,
2013-06-13 20:00:00,63.1,56.9,28.85,WSW,251,0.0,0.0,80,0.00,,OVC250,0.00,VWS V14.01,2013-06-14 01:00:00,
2013-06-13 20:15:00,63.1,56.9,28.85,WSW,251,0.0,0.0,80,0.00,,BKN250,0.00,VWS V14.01,2013-06-14 01:15:00,
2013-06-13 20:30:00,63.1,56.9,28.85,WSW,251,0.0,0.0,80,0.00,,BKN250,0.00,VWS V14.01,2013-06-14 01:30:00,
2013-06-13 20:45:00,63.1,56.9,28.82,WSW,251,0.0,0.0,80,0.00,,BKN250,0.00,VWS V14.01,2013-06-14 01:45:00,
2013-06-13 21:00:00,63.1,56.9,28.82,WSW,251,0.0,0.0,80,0.00,,BKN250,0.00,VWS V14.01,2013-06-14 02:00:00,
2013-06-13 21:15:00,63.1,56.9,28.82,WSW,251,0.0,0.0,80,0.00,,BKN250,0.00,VWS V14.01,2013-06-14 02:15:00,
2013-06-13 21:30:00,63.1,56.9,28.85,WSW,251,0.0,0.0,80,0.00,,BKN250,0.00,VWS V14.01,2013-06-14 02:30:00,
2013-06-13 21:45:00,63.1,56.9,28.85,WSW,251,0.0,0.0,80,0.00,,BKN250,0.00,VWS V14.01,2013-06-14 02:45:00,
2013-06-13 22:00:00,63.1,56.9,28.85,WSW,251,0.0,0.0,80,0.00,,BKN250,0.00,VWS V14.01,2013-06-14 03:00:00,
2013-06-13 22:15:00,63.1,56.9,28.85,WSW,251,0.0,0.0,80,0.00,,BKN250,0.00,VWS V14.01,2013-06-14 03:15:00,
2013-06-13 22:30:00,63.1,56.9,28.88,WSW,251,0.0,0.0,80,0.00,,BKN250,0.00,VWS V14.01,2013-06-14 03:30:00,
2013-06-13 22:45:00,63.1,56.9,28.88,WSW,251,0.0,0.0,80,0.00,,BKN250,0.00,VWS V14.01,2013-06-14 03:45:00,
2013-06-13 23:00:00,63.1,56.9,28.88,WSW,251,0.0,0.0,80,0.00,,BKN250,0.00,VWS V14.01,2013-06-14 04:00:00,
2013-06-13 23:15:00,63.1,56.9,28.88,WSW,251,0.0,0.0,80,0.00,,BKN250,0.00,VWS V14.01,2013-06-14 04:15:00,
2013-06-13 23:30:00,63.1,56.9,28.88,WSW,251,0.0,0.0,80,0.00,,BKN250,0.00,VWS V14.01,2013-06-14 04:30:00,
2013-06-13 23:45:00,63.1,56.9,28.88,WSW,251,0.0,0.0,80,0.00,,BKN250,0.00,VWS V14.01,2013-06-14 04:45:00,